Location: Austin
(30.3000°N, 97.7500°W)
Time: 10:49:27
(UTC-05:00)

Hubble Space Telescope - Pass Details

Date: 05 September 2024
Orbit: 506 x 509 km, 28.5° (Epoch: 10 September)

Event Time Altitude Azimuth Distance (km) Brightness Sun altitude
Rises 20:07:54 0° 270° (W) 2,598 6.5 -5.1°
Reaches altitude 10° 20:10:09 10° 267° (W) 1,712 5.0 -5.5°
Maximum altitude 20:14:03 61° 187° (S) 576 0.9 -6.4°
Drops below altitude 10° 20:17:56 10° 107° (ESE) 1,709 2.6 -7.2°
Enters shadow 20:18:07 - 106° (ESE) 1,784 2.7 -7.2°
